Weather History for KAVL - April, 2007

Change the Weather History Date:

Friday, April 13, 2007

  Actual Average Record
Temperature  
Mean Temperature 50 °F 55 °F  
Max Temperature 64 °F 67 °F 88 °F (1972)
Min Temperature 36 °F 42 °F 23 °F (1940)
Degree Days  
Heating Degree Days 15 11  
Month to date heating degree days 225 159  
Since 1 July heating degree days 3814 3931  
Cooling Degree Days 0 0  
Month to date cooling degree days 0 0  
Year to date cooling degree days 0 1  
Moisture  
Dew Point 24 °F    
Average Humidity 42    
Maximum Humidity 64    
Minimum Humidity 19    
Precipitation  
Precipitation T in 0.10 in 2.12 in (1877)
Month to date precipitation 0.49 1.46  
Year to date precipitation 9.58 12.72  
Snow  
Snow 0.00 in 0.00 in 1.60 in (1885)
Month to date snowfall 1.3 0.5  
Since 1 July snowfall 3.2 9.7  
Snow Depth -    
Sea Level Pressure  
Sea Level Pressure 30.09 in    
Wind  
Wind Speed 14 mph (NNW)    
Max Wind Speed 22 mph    
Max Gust Speed 28 mph    
Visibility 10 miles    
Events Rain    
T = Trace of Precipitation, MM = Missing Value Source: NWS Daily Summary

Daily Weather History Graph

Daily Weather History Graph

Search for Another Location

Airport or City:

Trip Planner

Search our weather history database for the weather conditions in past years. The results will help you decide how hot, cold, wet, or windy it might be!

Date:

Astronomy

Apr. 13, 2007 Rise Set
Actual Time 7:00 AM EDT 8:01 PM EDT
Civil Twilight 6:34 AM EDT 8:27 PM EDT
Nautical Twilight 6:03 AM EDT 8:58 PM EDT
Astronomical Twilight 5:31 AM EDT 9:30 PM EDT
Moon 4:42 AM EDT (4/13) 3:48 PM EDT (4/13)
Length of Visible Light 13h 52m
Length of Day
13h 00m
Waning Crescent, 20% of the Moon is Illuminated
Apr 13
Waning Crescent
Apr 17
New
Apr 24
First Quarter
May 2
Full
May 10
Last Quarter

Hourly Weather History & Observations

Time (EDT) Temp. Windchill Dew Point Humidity Pressure Visibility Wind Dir Wind Speed Gust Speed Precip Events Conditions
12:54 AM 44.1 °F 36.8 °F 28.9 °F 55% 29.99 in 10.0 mi NNW 16.1 mph 23.0 mph N/A   Clear
1:54 AM 43.0 °F 35.1 °F 28.0 °F 56% 30.01 in 10.0 mi NNW 17.3 mph - N/A   Clear
2:54 AM 42.1 °F 35.2 °F 28.0 °F 58% 30.01 in 10.0 mi North 12.7 mph - N/A   Clear
3:54 AM 39.9 °F 30.5 °F 28.0 °F 63% 30.03 in 10.0 mi NNW 19.6 mph 25.3 mph N/A   Clear
4:54 AM 39.0 °F 30.3 °F 28.0 °F 65% 30.05 in 10.0 mi North 16.1 mph 20.7 mph N/A   Clear
5:54 AM 37.9 °F 29.6 °F 27.0 °F 65% 30.07 in 10.0 mi NNW 13.8 mph 24.2 mph N/A   Clear
6:54 AM 37.0 °F 28.1 °F 27.0 °F 67% 30.11 in 10.0 mi NNW 15.0 mph - N/A   Clear
7:54 AM 37.9 °F 29.6 °F 26.1 °F 62% 30.14 in 10.0 mi North 13.8 mph 23.0 mph N/A   Clear
8:54 AM 39.9 °F 31.8 °F 25.0 °F 55% 30.16 in 10.0 mi North 15.0 mph 26.5 mph N/A   Clear
9:54 AM 44.1 °F 36.2 °F 26.1 °F 49% 30.15 in 10.0 mi North 18.4 mph 25.3 mph N/A   Clear
10:54 AM 46.9 °F - 26.1 °F 44% 30.14 in 10.0 mi North 19.6 mph 25.3 mph N/A   Clear
11:54 AM 53.1 °F - 25.0 °F 34% 30.16 in 10.0 mi North 16.1 mph 20.7 mph N/A   Clear
12:54 PM 51.1 °F - 21.0 °F 31% 30.16 in 10.0 mi North 16.1 mph - 0.00 in Rain Light Rain
1:54 PM 55.0 °F - 19.9 °F 25% 30.12 in 10.0 mi North 13.8 mph - 0.00 in   Clear
2:54 PM 57.9 °F - 23.0 °F 26% 30.10 in 10.0 mi NW 12.7 mph - N/A   Clear
3:54 PM 62.1 °F - 21.9 °F 21% 30.06 in 10.0 mi North 11.5 mph - N/A   Clear
4:54 PM 63.0 °F - 21.9 °F 21% 30.06 in 10.0 mi NNW 13.8 mph 19.6 mph N/A   Clear
5:54 PM 63.0 °F - 19.9 °F 19% 30.08 in 10.0 mi NW 12.7 mph - 0.00 in   Clear
6:54 PM 60.1 °F - 18.0 °F 20% 30.09 in 10.0 mi NNW 12.7 mph - N/A   Partly Cloudy
7:54 PM 57.0 °F - 16.0 °F 20% 30.09 in 10.0 mi NNW 9.2 mph - N/A   Partly Cloudy
8:54 PM 54.0 °F - 21.9 °F 29% 30.12 in 10.0 mi NNW 15.0 mph - N/A   Mostly Cloudy
9:54 PM 53.1 °F - 21.9 °F 30% 30.12 in 10.0 mi NW 10.4 mph - 0.00 in Rain Light Rain
10:54 PM 50.0 °F - 24.8 °F 37% 30.13 in 10.0 mi NNW 6.9 mph - N/A   Partly Cloudy
11:54 PM 48.9 °F - 25.0 °F 39% 30.08 in 10.0 mi NW 5.8 mph - N/A   Clear